Tracking 28125 objects as of 2-Oct-2023
HD Live streaming from Space Station
objects crossing your sky now

BS-3B (YURI 3B)

Track BS-3B (YURI 3B) now!
BS-3B (YURI 3B) is classified as:


NORAD ID: 21668
Int'l Code: 1991-060A
Perigee: 36,175.6 km
Apogee: 36,253.1 km
Inclination: 13.4 °
Period: 1,457.6 minutes
Semi major axis: 42585 km
RCS: 1.6 m2 (large)
Launch date: August 25, 1991
Source: Japan (JPN)
Launch site: TANEGASHIMA SPACE CENTER (TNSTA)
Your satellite tracking list
Your tracking list is empty




NASA's NSSDC Master Catalog

Two Line Element Set (TLE):
1 21668U 91060A   23273.25407750 -.00000084  00000-0  00000-0 0  9999
2 21668  13.3887   3.1492 0009104 149.4631 226.8385  0.98789968119522
Source of the keplerian elements: AFSPC